SL-16 DEB, 22545

Orbit data source: Space-Track

SL-16 DEB, 22545 is space debris in LEO originally from a launch on Fri, 25 Dec 1992 UTC launched from the Tyuratam Missile And Space Complex (TTMTR). Debris objects in space refer to the collection of defunct objects orbiting the Earth. Examples of debris include non-operational satellites, rocket bodies, and fragments generated from explosions, collisions, or faulty payload assembly.

Loading next visibility...
Identifier
22545, 1992-093HF
Orbit
LEO
Country
Flag of CISCIS
Related business
Manufacturer
Unknown
Mission
Spacecraft
Bus & Motor
Unknown
Mass
Unknown
Launch date (UTC)
1992-12-25 (33 years ago)
Launch vehicle
Unknown
Launch site
Tyuratam Missile And Space Complex (TTMTR)
Object type
Payload
Rocket body
Debris
Shape & HBR
Unknown shape, 1.1 m
Radar Cross Section
Small (<0.1 m²)

Expand to show TLE details & history
Last TLE update: 6 days ago

TLE from 6 days ago
0 SL-16 DEB
1 22545U 92093HF  26032.03119935  .00002167  00000-0  23774-2 0  9996
2 22545  71.5638  28.1385 0379641  63.0472 300.8864 13.46045270604112
Epoch: 2026-02-01T00:44Z
TLE epoch observation values (Epoch: 2026-02-01T00:44:55.623Z)
Latitude
-0.00008°
Longitude
-114.33997°
Altitude
951.857 km
Speed
7.444 km/s
True Right ascension
01h 52m 33s
True Declination
0° 00' 00"
Sunlit
Object was in daylight at epoch
Visualization orbit readout
Latitude
Unknown
Longitude
Unknown
Altitude
Unknown
Speed
Unknown
Apparent Right ascension
Unknown
Apparent Declination
Unknown
Sunlit
N/A
Visualization observer readout
Local Sidereal Time
20:39:01
Azimuth
Unknown
Elevation
Unknown
Doppler factor
Unknown
Orbital elements
Apogee altitude
1,368.103 km
Perigee altitude
801.457 km
Semi-major axis
7,462.917 km
Eccentricity
0.03796
Inclination
71.5638°
RAAN
28.1385°
Arg. of periapsis
63.0472°
True anomaly
297.0627°
Mean anomaly
300.8864°
Eccentric anomaly
298.98364°
Mean motion
3.36651 °/min
Orbital period
106.94 mins
BSTAR
0.0023774
Loading maneuver chart data...
Computing Atmospheric mass density...

Documentation

Showing up to 5 results
|